Language: 


Des rapports , des résumés tant et plus, au choix de chacun....


Données statistiques de la station
Quotidien Rapport Décembre 08, 2017 Unités:  Anglais    Métrique   les deux
« Précédent Jour
Suivant Jour »
Quotidien Hebdomadaire Mensuel Annuel Actuel
  Haut: Bas: Moyen:
Température: 43.3 °F 32.4 °F 37 °F
Pt de rosée: 39.2 °F 28.4 °F 33.4 °F
Humidité: 98 % 64 % 85 %
Vitesse du vent: 13.4 mph 0 mph 4.8 mph
Rafales: 19.7 mph - -
Vent:- - West
Pression: 30 in 29.8 in -
Précipitation: 0.01 in    
Historical Graphs
 
 
Données statistiques pour Décembre 08, 2017
Heure Température Point de rosée Pression Vent Vitesse du vent Refales Humidité Pluie (taux horaire)
00:07 39.7 °F 39.2 °F 29.9 in WSW 3.6 mph 6 mph 98 % 0 in
00:23 39.4 °F 39.2 °F 29.9 in WSW 3.6 mph 3.6 mph 98 % 0 in
00:33 39 °F 39.2 °F 29.9 in WSW 3.6 mph 3.6 mph 98 % 0 in
00:38 38.7 °F 39.2 °F 29.9 in WSW 3.6 mph 3.6 mph 98 % 0 in
00:43 38.5 °F 39.2 °F 29.9 in WSW 3.6 mph 3.6 mph 98 % 0 in
00:48 38.5 °F 39.2 °F 29.9 in WSW 3.6 mph 3.6 mph 98 % 0 in
00:53 38.3 °F 39.2 °F 29.9 in WSW 3.6 mph 3.6 mph 98 % 0 in
00:58 38.3 °F 39.2 °F 29.9 in WSW 3.6 mph 3.6 mph 98 % 0 in
01:02 38.5 °F 39.2 °F 29.9 in WSW 3.6 mph 3.6 mph 98 % 0 in
01:07 38.5 °F 39.2 °F 29.9 in WSW 3.6 mph 3.6 mph 98 % 0 in
01:17 38.5 °F 39.2 °F 29.8 in WSW 3.6 mph 3.6 mph 98 % 0 in
01:22 38.5 °F 39.2 °F 29.8 in WSW 3.6 mph 3.6 mph 98 % 0 in
01:27 38.3 °F 39.2 °F 29.9 in WSW 3.6 mph 3.6 mph 98 % 0 in
01:32 38.1 °F 37.4 °F 29.9 in WSW 3.6 mph 3.6 mph 98 % 0 in
01:38 38.1 °F 37.4 °F 29.9 in WSW 3.6 mph 3.6 mph 98 % 0 in
01:43 38.1 °F 37.4 °F 29.9 in WSW 3.6 mph 3.6 mph 98 % 0 in
01:48 37.9 °F 37.4 °F 29.9 in WSW 3.6 mph 3.6 mph 98 % 0 in
02:03 37.4 °F 37.4 °F 29.9 in WSW 3.6 mph 3.6 mph 98 % 0 in
02:13 37 °F 37.4 °F 29.9 in WSW 3.6 mph 3.6 mph 98 % 0 in
02:18 37 °F 37.4 °F 29.9 in WSW 3.6 mph 3.6 mph 98 % 0 in
02:23 36.9 °F 37.4 °F 29.9 in WSW 3.6 mph 3.6 mph 98 % 0 in
02:33 36.5 °F 37.4 °F 29.9 in WSW 3.6 mph 3.6 mph 98 % 0 in
02:38 36.5 °F 37.4 °F 29.9 in WSW 3.6 mph 3.6 mph 98 % 0 in
02:43 36.3 °F 37.4 °F 29.8 in WSW 3.6 mph 3.6 mph 98 % 0 in
02:48 36.3 °F 37.4 °F 29.8 in WSW 3.6 mph 3.6 mph 98 % 0 in
02:53 36.3 °F 37.4 °F 29.8 in WSW 3.6 mph 3.6 mph 98 % 0 in
03:04 36.1 °F 37.4 °F 29.8 in Calm     98 % 0 in
03:09 36.1 °F 37.4 °F 29.8 in Calm     98 % 0 in
03:14 36.1 °F 37.4 °F 29.9 in Calm     98 % 0 in
03:24 36.1 °F 37.4 °F 29.9 in Calm     98 % 0 in
03:29 36 °F 35.6 °F 29.9 in Calm     98 % 0 in
03:34 35.8 °F 35.6 °F 29.9 in Calm     98 % 0 in
03:39 35.6 °F 35.6 °F 29.9 in Calm     98 % 0 in
03:49 35.2 °F 35.6 °F 29.9 in Calm     98 % 0 in
03:54 35.1 °F 35.6 °F 29.9 in Calm     98 % 0 in
03:59 34.9 °F 35.6 °F 29.9 in Calm     98 % 0 in
04:16 34.3 °F 33.8 °F 29.9 in Calm     98 % 0 in
04:21 34.5 °F 33.8 °F 29.9 in Calm     98 % 0 in
04:26 34.7 °F 35.6 °F 29.9 in Calm     98 % 0 in
04:28 34.7 °F 35.6 °F 29.9 in Calm     98 % 0 in
04:33 34.9 °F 35.6 °F 29.9 in Calm     98 % 0 in
04:38 35.1 °F 35.6 °F 29.9 in Calm     98 % 0 in
04:43 35.1 °F 35.6 °F 29.9 in Calm     98 % 0 in
04:48 35.2 °F 35.6 °F 29.9 in Calm     98 % 0 in
04:58 35.1 °F 35.6 °F 29.9 in Calm     98 % 0 in
05:03 34.9 °F 35.6 °F 29.9 in Calm     98 % 0 in
05:09 34.7 °F 35.6 °F 29.9 in Calm     98 % 0.01 in
05:14 34.5 °F 33.8 °F 29.8 in Calm     98 % 0.01 in
05:19 34.3 °F 33.8 °F 29.8 in Calm     98 % 0.01 in
05:29 34.3 °F 33.8 °F 29.8 in Calm     98 % 0.01 in
05:44 34 °F 33.8 °F 29.8 in Calm     98 % 0.01 in
05:49 34 °F 33.8 °F 29.8 in Calm     98 % 0.01 in
06:04 33.4 °F 33.8 °F 29.8 in Calm     98 % 0 in
06:14 33.1 °F 33.8 °F 29.8 in Calm     98 % 0 in
06:29 33.4 °F 33.8 °F 29.8 in Calm     98 % 0 in
06:34 33.3 °F 33.8 °F 29.8 in Calm     98 % 0 in
06:39 33.4 °F 33.8 °F 29.8 in Calm     98 % 0 in
06:45 33.3 °F 33.8 °F 29.8 in Calm   2.9 mph 98 % 0 in
06:50 33.3 °F 33.8 °F 29.8 in Calm   2.9 mph 98 % 0 in
06:55 33.3 °F 33.8 °F 29.8 in Calm   3.1 mph 98 % 0 in
07:00 33.3 °F 33.8 °F 29.8 in West 4.3 mph 4.3 mph 98 % 0 in
07:10 33.3 °F 33.8 °F 29.8 in WSW 4.9 mph 5.4 mph 98 % 0 in
07:20 33.6 °F 33.8 °F 29.8 in West 4 mph 6 mph 98 % 0 in
07:25 33.6 °F 33.8 °F 29.8 in West 4 mph 6 mph 98 % 0 in
07:30 33.8 °F 33.8 °F 29.8 in West 4.3 mph 4.5 mph 98 % 0 in
07:45 33.6 °F 33.8 °F 29.8 in WSW 5.8 mph 6.7 mph 98 % 0 in
07:55 33.8 °F 33.8 °F 29.8 in West 6 mph 7.4 mph 98 % 0 in
08:00 33.8 °F 33.8 °F 29.8 in WSW 6.5 mph 7.4 mph 98 % 0 in
08:05 34 °F 33.8 °F 29.8 in West 4.9 mph 7.8 mph 98 % 0 in
08:10 34 °F 33.8 °F 29.9 in West 4.3 mph 7.8 mph 98 % 0 in
08:15 34.2 °F 33.8 °F 29.9 in WSW 6.5 mph 7.8 mph 98 % 0 in
08:21 34.2 °F 33.8 °F 29.9 in West 6 mph 7.8 mph 98 % 0 in
08:26 34.3 °F 33.8 °F 29.9 in WSW 6.7 mph 7.4 mph 98 % 0 in
08:36 34.7 °F 35.6 °F 29.9 in WSW 5.8 mph 8.7 mph 98 % 0 in
08:41 34.9 °F 35.6 °F 29.9 in West 5.4 mph 9.4 mph 98 % 0 in
08:46 35.1 °F 35.6 °F 29.9 in WSW 6 mph 9.4 mph 98 % 0 in
08:51 35.2 °F 35.6 °F 29.9 in West 6.3 mph 9.6 mph 98 % 0 in
09:01 35.6 °F 35.6 °F 29.9 in WSW 9.2 mph 10.5 mph 96 % 0 in
09:11 36.3 °F 35.6 °F 29.9 in West 6.5 mph 10.7 mph 95 % 0 in
09:16 36.5 °F 35.6 °F 29.9 in West 8.7 mph 14.1 mph 95 % 0 in
09:21 36.7 °F 35.6 °F 29.9 in WSW 7.8 mph 14.1 mph 94 % 0 in
09:26 37 °F 35.6 °F 29.9 in West 6.5 mph 12.8 mph 93 % 0 in
09:31 37 °F 35.6 °F 29.9 in West 7.8 mph 12.8 mph 92 % 0 in
09:41 37.4 °F 35.6 °F 29.9 in West 7.8 mph 11.4 mph 90 % 0 in
09:46 37.6 °F 35.6 °F 29.9 in WNW 7.8 mph 13.6 mph 89 % 0 in
09:56 37.9 °F 35.6 °F 29.8 in West 7.8 mph 13 mph 89 % 0 in
10:01 37.9 °F 35.6 °F 29.8 in WSW 5.8 mph 12.5 mph 88 % 0 in
10:06 38.1 °F 35.6 °F 29.8 in WSW 8.7 mph 12.5 mph 88 % 0 in
10:17 38.5 °F 35.6 °F 29.9 in WSW 3.8 mph 11.9 mph 88 % 0 in
10:22 38.7 °F 35.6 °F 29.9 in West 5.8 mph 11.9 mph 87 % 0 in
10:27 38.8 °F 35.6 °F 29.9 in West 5.8 mph 9.4 mph 88 % 0 in
10:32 39.2 °F 35.6 °F 29.9 in WSW 5.4 mph 7.4 mph 87 % 0 in
10:37 39.4 °F 35.6 °F 29.9 in WNW 5.8 mph 8.1 mph 87 % 0 in
10:42 39.7 °F 37.4 °F 29.9 in SSW 4.9 mph 8.5 mph 87 % 0 in
10:47 40.1 °F 37.4 °F 29.9 in North 7.8 mph 8.5 mph 86 % 0 in
10:57 41 °F 37.4 °F 29.9 in WNW 11 mph 12.1 mph 84 % 0 in
11:02 41.5 °F 37.4 °F 29.9 in SW 13.4 mph 13.4 mph 82 % 0 in
11:07 41.5 °F 37.4 °F 29.9 in West 10.7 mph 14.5 mph 82 % 0 in
11:17 42.4 °F 37.4 °F 29.9 in WNW 13.2 mph 13.2 mph 78 % 0 in
11:22 42.3 °F 35.6 °F 29.9 in NNW 8.1 mph 13.2 mph 77 % 0 in
11:32 42.4 °F 37.4 °F 29.9 in NW 5.6 mph 12.5 mph 77 % 0 in
11:37 42.6 °F 35.6 °F 29.9 in NW 7.4 mph 10.3 mph 76 % 0 in
11:42 42.3 °F 35.6 °F 29.9 in West 5.4 mph 11 mph 76 % 0 in
11:47 41.5 °F 35.6 °F 29.9 in WSW 2.9 mph 11 mph 75 % 0 in
12:07 41.5 °F 35.6 °F 29.9 in West 5.6 mph 11 mph 77 % 0 in
12:11 41.9 °F 35.6 °F 29.9 in West 11 mph 11 mph 78 % 0 in
12:21 41.9 °F 35.6 °F 29.9 in WNW 8.5 mph 11 mph 77 % 0 in
12:26 41.9 °F 35.6 °F 29.9 in NNW 4 mph 13.2 mph 77 % 0 in
12:31 42.1 °F 35.6 °F 29.9 in WNW 6.3 mph 13.2 mph 77 % 0 in
12:34 42.4 °F 35.6 °F 29.9 in SW 8.7 mph 13.2 mph 76 % 0 in
12:44 43.2 °F 37.4 °F 29.9 in WSW 5.6 mph 16.8 mph 76 % 0 in
12:54 43.3 °F 35.6 °F 29.9 in WNW 8.1 mph 13.2 mph 74 % 0 in
12:59 43.2 °F 35.6 °F 29.9 in WNW 8.7 mph 13 mph 73 % 0 in
13:04 43 °F 33.8 °F 29.9 in West 13.2 mph 13.6 mph 69 % 0 in
13:09 42.4 °F 33.8 °F 29.9 in WNW 8.1 mph 15.4 mph 70 % 0 in
13:14 42.1 °F 33.8 °F 29.9 in South 8.7 mph 15.4 mph 70 % 0 in
13:19 41.9 °F 33.8 °F 29.9 in NW 6.5 mph 19.7 mph 69 % 0 in
13:24 42.1 °F 33.8 °F 29.9 in West 11 mph 19.7 mph 70 % 0 in
13:29 41.9 °F 33.8 °F 29.9 in West 9.8 mph 16.6 mph 69 % 0 in
13:34 42.1 °F 33.8 °F 29.9 in West 4.9 mph 16.6 mph 69 % 0 in
13:39 42.1 °F 33.8 °F 29.9 in NNW 2 mph 12.3 mph 70 % 0 in
13:44 41.7 °F 32 °F 29.9 in NW 3.6 mph 10.3 mph 69 % 0 in
13:54 42.4 °F 33.8 °F 29.9 in West 7.8 mph 10.1 mph 68 % 0 in
14:00 42.4 °F 33.8 °F 29.9 in West 6.5 mph 17.4 mph 68 % 0 in
14:05 42.3 °F 32 °F 29.9 in WNW 10.3 mph 17.4 mph 67 % 0 in
14:10 41.9 °F 33.8 °F 29.9 in West 7.6 mph 12.8 mph 68 % 0 in
14:15 41.5 °F 32 °F 29.9 in WNW 11.9 mph 14.8 mph 68 % 0 in
14:25 41.4 °F 32 °F 29.9 in WSW 5.8 mph 15.9 mph 67 % 0 in
14:30 41.2 °F 30.2 °F 29.9 in WSW 11 mph 15.2 mph 65 % 0 in
14:35 41 °F 30.2 °F 29.9 in NW 5.8 mph 15.2 mph 66 % 0 in
14:40 40.8 °F 30.2 °F 29.9 in NW 10.3 mph 12.5 mph 67 % 0 in
14:45 40.6 °F 30.2 °F 29.9 in WNW 8.7 mph 10.7 mph 68 % 0 in
14:50 40.5 °F 30.2 °F 29.9 in West 6.3 mph 10.5 mph 69 % 0 in
15:00 41 °F 32 °F 29.9 in WNW 8.7 mph 10.5 mph 69 % 0 in
15:06 41 °F 32 °F 29.9 in WNW 9.8 mph 11.2 mph 69 % 0 in
15:11 40.5 °F 30.2 °F 29.9 in West 5.4 mph 11.2 mph 68 % 0 in
15:16 40.5 °F 30.2 °F 29.9 in WNW 5.8 mph 11 mph 68 % 0 in
15:21 40.8 °F 32 °F 29.9 in West 5.8 mph 10.7 mph 68 % 0 in
15:26 40.6 °F 30.2 °F 29.9 in WNW 4.9 mph 9.6 mph 69 % 0 in
15:31 40.6 °F 30.2 °F 29.9 in West 10.1 mph 10.1 mph 69 % 0 in
15:36 41 °F 32 °F 29.9 in WNW 3.8 mph 10.7 mph 68 % 0 in
15:41 41.2 °F 32 °F 29.9 in West 5.8 mph 10.7 mph 68 % 0 in
15:51 40.8 °F 30.2 °F 29.9 in NW 8.1 mph 16.1 mph 64 % 0 in
16:16 39.4 °F 30.2 °F 29.9 in West 4.9 mph 8.7 mph 68 % 0 in
16:21 39.2 °F 30.2 °F 29.9 in West 4.7 mph 8.7 mph 69 % 0 in
16:26 38.8 °F 30.2 °F 29.9 in WNW 7.4 mph 8.7 mph 71 % 0 in
16:31 38.5 °F 30.2 °F 29.9 in WNW 4.9 mph 9.2 mph 71 % 0 in
16:41 37.9 °F 30.2 °F 29.9 in West 5.4 mph 8.1 mph 73 % 0 in
16:46 37.6 °F 30.2 °F 29.9 in West 2.7 mph 8.1 mph 73 % 0 in
17:02 37.6 °F 30.2 °F 29.9 in WSW 7.2 mph 10.1 mph 74 % 0 in
17:07 37.8 °F 30.2 °F 29.9 in WSW 6.3 mph 10.3 mph 73 % 0 in
17:12 37.8 °F 30.2 °F 29.9 in West 6.3 mph 10.3 mph 73 % 0 in
17:17 37.4 °F 30.2 °F 29.9 in WSW 3.8 mph 8.1 mph 72 % 0 in
17:22 37.2 °F 30.2 °F 29.9 in West 4.9 mph 7.2 mph 73 % 0 in
17:27 36.9 °F 30.2 °F 29.9 in WNW 2 mph 7.2 mph 73 % 0 in
17:32 36.7 °F 30.2 °F 29.9 in West 1.1 mph 7.2 mph 73 % 0 in
17:37 36.5 °F 30.2 °F 29.9 in WSW 4 mph 7.8 mph 73 % 0 in
17:42 36.3 °F 30.2 °F 29.9 in WNW 5.8 mph 7.8 mph 74 % 0 in
17:47 36 °F 28.4 °F 29.9 in West 7.2 mph 10.5 mph 74 % 0 in
17:52 35.8 °F 30.2 °F 29.9 in WSW 9.8 mph 10.5 mph 75 % 0 in
17:57 35.6 °F 30.2 °F 29.9 in WSW 2.7 mph 9.8 mph 75 % 0 in
18:12 35.4 °F 28.4 °F 29.9 in West 1.6 mph 8.1 mph 76 % 0 in
18:17 35.2 °F 28.4 °F 29.9 in WSW 7.8 mph 7.8 mph 77 % 0 in
18:22 35.1 °F 28.4 °F 29.9 in West 5.8 mph 7.8 mph 77 % 0 in
18:27 34.9 °F 28.4 °F 29.9 in West 5.6 mph 7.6 mph 77 % 0 in
18:32 34.5 °F 28.4 °F 29.9 in WSW 3.6 mph 5.8 mph 77 % 0 in
18:37 34.2 °F 28.4 °F 29.9 in West 3.6 mph 5.4 mph 77 % 0 in
18:47 33.8 °F 28.4 °F 29.9 in WNW 3.4 mph 5.6 mph 78 % 0 in
18:52 33.8 °F 28.4 °F 29.9 in West 3.4 mph 5.8 mph 79 % 0 in
18:57 33.8 °F 28.4 °F 30 in West 2.7 mph 7.2 mph 79 % 0 in
19:02 33.8 °F 28.4 °F 30 in WSW 4 mph 7.2 mph 80 % 0 in
19:12 34 °F 28.4 °F 30 in West 6.3 mph 7.8 mph 81 % 0 in
19:33 34.2 °F 30.2 °F 30 in West 7.2 mph 7.6 mph 81 % 0 in
19:43 34.3 °F 30.2 °F 30 in West 4.9 mph 10.7 mph 81 % 0 in
19:53 34.2 °F 30.2 °F 30 in WSW 1.1 mph 7.6 mph 81 % 0 in
19:58 34.2 °F 30.2 °F 30 in WSW 4.9 mph 8.5 mph 81 % 0 in
20:08 34 °F 28.4 °F 30 in NW 6.3 mph 7.8 mph 81 % 0 in
20:13 34 °F 28.4 °F 30 in WSW 3.6 mph 7.8 mph 81 % 0 in
20:28 34.5 °F 30.2 °F 30 in NNW 5.6 mph 8.1 mph 83 % 0 in
20:33 34.9 °F 30.2 °F 30 in NNW 3.8 mph 10.5 mph 82 % 0 in
20:38 35.2 °F 30.2 °F 30 in NNW 7.2 mph 10.5 mph 82 % 0 in
20:43 35.2 °F 30.2 °F 30 in WNW 4 mph 12.8 mph 81 % 0 in
20:48 35.4 °F 30.2 °F 30 in West 6.5 mph 12.8 mph 81 % 0 in
20:53 35.4 °F 30.2 °F 30 in WNW 5.6 mph 10.3 mph 81 % 0 in
20:58 35.2 °F 30.2 °F 30 in WSW 4.3 mph 10.7 mph 80 % 0 in
21:05 35.1 °F 30.2 °F 30 in West 2.7 mph 9.4 mph 80 % 0 in
21:10 34.9 °F 30.2 °F 30 in WNW 2.9 mph 10.1 mph 80 % 0 in
21:15 34.9 °F 30.2 °F 29.9 in West 3.8 mph 10.1 mph 81 % 0 in
21:25 34.7 °F 30.2 °F 29.9 in West 3.4 mph 8.5 mph 81 % 0 in
21:40 34.2 °F 30.2 °F 30 in West 6.5 mph 7.6 mph 81 % 0 in
21:45 34 °F 28.4 °F 30 in West 3.4 mph 7.6 mph 81 % 0 in
21:50 33.8 °F 30.2 °F 30 in West 3.8 mph 8.7 mph 82 % 0 in
22:06 33.6 °F 30.2 °F 30 in West 7.2 mph 7.8 mph 83 % 0 in
22:16 33.6 °F 30.2 °F 30 in WSW 0.9 mph 8.5 mph 85 % 0 in
22:21 33.6 °F 30.2 °F 30 in WNW 6.5 mph 8.5 mph 85 % 0 in
22:31 33.8 °F 30.2 °F 30 in West 5.6 mph 8.7 mph 84 % 0 in
22:41 33.6 °F 30.2 °F 30 in WNW 3.4 mph 9.2 mph 85 % 0 in
22:46 33.6 °F 30.2 °F 30 in WSW 7.8 mph 8.7 mph 85 % 0 in
22:51 33.6 °F 30.2 °F 30 in West 4 mph 7.8 mph 85 % 0 in
22:56 33.4 °F 30.2 °F 30 in West 7.2 mph 9.2 mph 85 % 0 in
23:11 33.1 °F 30.2 °F 30 in West 5.6 mph 8.5 mph 84 % 0 in
23:16 32.9 °F 30.2 °F 30 in WSW 3.6 mph 7.4 mph 85 % 0 in
23:21 32.7 °F 30.2 °F 30 in West 5.4 mph 7.4 mph 85 % 0 in
23:26 32.7 °F 30.2 °F 30 in West 6.3 mph 6.5 mph 85 % 0 in
23:31 32.7 °F 30.2 °F 30 in West 4.3 mph 7.6 mph 85 % 0 in
23:41 32.7 °F 30.2 °F 30 in West 4.9 mph 8.7 mph 87 % 0 in
23:46 32.7 °F 30.2 °F 30 in West 5.6 mph 8.7 mph 87 % 0 in
23:56 32.4 °F 30.2 °F 30 in West 4 mph 7.2 mph 87 % 0 in
Le Gheer Warneton
Courtoisie de Weather Underground - 1.75 mb

Mise a jour : 18/12/2017 04:04:13
Généré par Cumulus 1.9.4 (1099)